Azusa Past Weather

Last 30 Days

 
High: 53ºf @12:57 AM    Low: 48ºf @3:57 AM     Approx. Precipitation / Rain Total: in.
Time (PST)Temp. (ºf)Humidity (%)Dew Point (ºf)Barometer (inHG)Wind Speed (mph)Wind DirectionWind Gust (mph)1hr. Precip / Rain Total (in.)Snow Depth
3:57 AM487841.47-1.74ne9.56--
2:57 AM498243.75-1.74ne6.95--
1:57 AM528848.56-3.48ne7.82--
12:57 AM538849.54-2.61ne6.08--
High: 64ºf @2:57 PM    Low: 54ºf @4:57 AM     Approx. Precipitation / Rain Total: in.
Time (PST)Temp. (ºf)Humidity (%)Dew Point (ºf)Barometer (inHG)Wind Speed (mph)Wind DirectionWind Gust (mph)1hr. Precip / Rain Total (in.)Snow Depth
11:57 PM5410054-0.87ene2.61--
9:57 PM549853.45---2.61--
8:57 PM559854.44---3.48--
7:57 PM569755.16-1.74sse3.48--
6:57 PM579455.29-1.74sw6.95--
5:57 PM599056.07-3.48sw6.95--
4:57 PM608455.15-0.87wsw1.74--
3:57 PM627955.41---3.48--
2:57 PM647355.17-0.87se4.34--
12:57 PM618556.45-1.74ene5.21--
11:57 AM599657.86-0.87se4.34--
10:57 AM608756.12-0.87s2.61--
9:57 AM599156.37-0.87ese4.34--
8:57 AM568651.87-2.61ne7.82--
7:57 AM569053.11-1.74ne4.34--
6:57 AM568752.18-1.74ene8.69--
5:57 AM558951.82-3.48ne6.95--
4:57 AM549552.6-3.48ne6.95--
3:57 AM559954.72-0.87ne4.34--
2:57 AM569253.71-2.61ene4.34--
1:57 AM559252.72-0.87ene6.08--
12:57 AM559754.16-2.61nne6.08--
High: 73ºf @12:57 PM    Low: 52ºf @6:57 AM     Approx. Precipitation / Rain Total: in.
Time (PST)Temp. (ºf)Humidity (%)Dew Point (ºf)Barometer (inHG)Wind Speed (mph)Wind DirectionWind Gust (mph)1hr. Precip / Rain Total (in.)Snow Depth
11:57 PM5610056-0.87ene2.61--
10:57 PM5610056-0.87w3.48--
9:57 PM5510055-2.61w3.48--
7:57 PM5610056-2.61wsw3.48--
6:57 PM579956.72-2.61wsw3.48--
5:57 PM598955.76-1.74ssw4.34--
4:57 PM637354.2-2.61wsw6.08--
3:57 PM686154.04-4.34sw8.69--
1:57 PM734248.54-4.34sw7.82--
12:57 PM734147.89-3.48w6.08--
11:57 AM714548.58-2.61sw6.95--
10:57 AM704547.67-1.74s4.34--
9:57 AM685048.66-0.87ese3.48--
8:57 AM625947.5-0.87se2.61--
7:57 AM567347.47-0.87se8.69--
6:57 AM528547.63-3.48nne6.95--
5:57 AM557246.14-1.74ne4.34--
3:57 AM576846.54-2.61e8.69--
2:57 AM557547.22-2.61ene6.95--
1:57 AM586646.7-5.21nne7.82--
12:57 AM558550.57-0.87ne3.48--
High: 72ºf @12:57 PM    Low: 52ºf @3:57 AM     Approx. Precipitation / Rain Total: in.
Time (PST)Temp. (ºf)Humidity (%)Dew Point (ºf)Barometer (inHG)Wind Speed (mph)Wind DirectionWind Gust (mph)1hr. Precip / Rain Total (in.)Snow Depth
11:57 PM549552.6---2.61--
10:57 PM558149.28-1.74ne3.48--
9:57 PM558249.61-0.87e6.95--
8:57 PM597049.23-3.48ne7.82--
6:57 PM596848.45-2.61nne4.34--
5:57 PM616147.45-1.74nnw3.48--
4:57 PM655045.9-2.61w3.48--
3:57 PM723844.99-0.87wsw4.34--
12:57 PM723542.84-2.61sse5.21--
11:57 AM693842.33-1.74ese5.21--
9:57 AM654744.27-0.87e3.48--
8:57 AM605644.26-0.87e3.48--
7:57 AM556643.85-0.87e5.21--
6:57 AM527142.89-1.74e6.95--
5:57 AM536742.34-3.48nne7.82--
4:57 AM536943.1-3.48sse8.69--
3:57 AM527343.62-2.61ene6.08--
2:57 AM546843.68-0.87ese4.34--
1:57 AM527745.02-0.87ene5.21--
12:57 AM546843.68-4.34nne7.82--
High: 67ºf @2:57 PM    Low: 52ºf @5:57 AM     Approx. Precipitation / Rain Total: in.
Time (PST)Temp. (ºf)Humidity (%)Dew Point (ºf)Barometer (inHG)Wind Speed (mph)Wind DirectionWind Gust (mph)1hr. Precip / Rain Total (in.)Snow Depth
10:57 PM557145.77-1.74ese8.69--
9:57 PM566644.8-4.34ne7.82--
8:57 PM557045.4---4.34--
7:57 PM576344.53-1.74ene8.69--
6:57 PM576444.94-1.74ne6.08--
5:57 PM576444.94-2.61n3.48--
3:57 PM673941.22-2.61sw6.08--
2:57 PM673639.16-2.61wsw6.08--
12:57 PM673639.16-2.61wsw6.08--
11:57 AM673739.86-2.61ssw5.21--
9:57 AM624741.54-3.48ese6.08--
8:57 AM574535.87-3.48ne8.69--
7:57 AM544734.23-5.21nne13.03--
6:57 AM534934.36-5.21ene13.03--
5:57 AM525033.94-6.08ne14.77--
4:57 AM535034.86-5.21ene11.3--
3:57 AM535135.36-5.21ne12.17--
2:57 AM535436.8-6.08ne16.51--
1:57 AM545136.28-7.82ne13.03--
12:57 AM536139.91-3.48ene13.9--
High: 71ºf @2:57 PM    Low: 51ºf @4:57 AM     Approx. Precipitation / Rain Total: in.
Time (PST)Temp. (ºf)Humidity (%)Dew Point (ºf)Barometer (inHG)Wind Speed (mph)Wind DirectionWind Gust (mph)1hr. Precip / Rain Total (in.)Snow Depth
11:57 PM545638.66-6.95ne13.03--
10:57 PM565540.06-7.82ne13.03--
9:57 PM575741.92-6.08ene13.03--
7:57 PM595743.79-4.34ene12.17--
6:57 PM586245.05-3.48ene9.56--
5:57 PM596246-1.74wsw3.48--
2:57 PM713642.69-0.87ese4.34--
1:57 PM693640.93-2.61ssw6.08--
12:57 PM693842.33-0.87e4.34--
11:57 AM654844.83-0.87s3.48--
10:57 AM645145.5-2.61sse4.34--
9:57 AM604739.71-1.74e7.82--
8:57 AM575038.55-0.87ne15.64--
7:57 AM545337.26-6.08ne13.9--
6:57 AM525938.12-3.48ene12.17--
5:57 AM516037.61-1.74ene14.77--
4:57 AM516238.44-6.08ne14.77--
3:57 AM526038.55-6.08ne14.77--
2:57 AM536240.33-5.21ene12.17--
1:57 AM536139.91-6.95ne13.9--
12:57 AM546140.86-6.08ne11.3--
High: 68ºf @2:57 PM    Low: 49ºf @5:57 AM     Approx. Precipitation / Rain Total: in.
Time (PST)Temp. (ºf)Humidity (%)Dew Point (ºf)Barometer (inHG)Wind Speed (mph)Wind DirectionWind Gust (mph)1hr. Precip / Rain Total (in.)Snow Depth
11:57 PM555940.94-6.08ne13.9--
10:57 PM556141.8-6.08ne14.77--
9:57 PM566444-7.82ne13.9--
8:57 PM576645.75-6.95ne13.9--
7:57 PM577147.69-3.48ene10.43--
5:57 PM587650.48-3.48ne6.95--
3:57 PM665448.87-2.61wsw4.34--
2:57 PM685149.19-1.74w6.95--
1:57 PM685450.72-2.61wsw6.95--
12:57 PM665549.36-2.61sse6.08--
11:57 AM656251.66-1.74ssw6.08--
9:57 AM598554.49-1.74sse5.21--
8:57 AM559252.72-2.61sse6.08--
7:57 AM5010050-2.61se6.08--
5:57 AM499246.78-1.74ene10.43--
4:57 AM518145.38-3.48ene12.17--
2:57 AM528146.35-4.34ne13.03--
1:57 AM528447.32-4.34ene13.03--
12:57 AM538548.61-5.21ne10.43--
High: 65ºf @12:57 PM    Low: 54ºf @8:57 PM     Approx. Precipitation / Rain Total: in.
Time (PST)Temp. (ºf)Humidity (%)Dew Point (ºf)Barometer (inHG)Wind Speed (mph)Wind DirectionWind Gust (mph)1hr. Precip / Rain Total (in.)Snow Depth
11:57 PM548750.22-5.21ne8.69--
10:57 PM559353.01-0.87nne6.08--
9:57 PM5410054---3.48--
8:57 PM5410054---1.74--
7:57 PM5610056---3.48--
5:57 PM569755.16-3.48wsw8.69--
4:57 PM589757.15-3.48sw9.56--
3:57 PM5910059-4.34ssw9.56--
2:57 PM6010060-6.08sw13.9--
1:57 PM6010060-6.08w15.64--
12:57 PM656954.57-6.95wsw12.17--
11:57 AM648258.39-0.87wnw3.48--
10:57 AM629359.95-0.87w3.48--
9:57 AM6010060-1.74s3.48--
8:57 AM5910059---2.61--
7:57 AM5610056-1.74nnw2.61--
6:57 AM5610056---2.61--
5:57 AM5710057---2.61--
3:57 AM5810058---1.74--
2:57 AM5810058---0.87--
1:57 AM5810058---1.74--
12:57 AM5810058---3.48--
High: 64ºf @1:57 PM    Low: 57ºf @1:57 AM     Approx. Precipitation / Rain Total: in.
Time (PST)Temp. (ºf)Humidity (%)Dew Point (ºf)Barometer (inHG)Wind Speed (mph)Wind DirectionWind Gust (mph)1hr. Precip / Rain Total (in.)Snow Depth
11:57 PM5810058-0.87nw3.48--
10:57 PM5810058---3.48--
9:57 PM5810058---4.34--
6:57 PM609959.72---2.61--
5:57 PM619358.96-0.87ese1.74--
4:57 PM619158.35---4.34--
3:57 PM638458.08---4.34--
1:57 PM649462.24-0.87n4.34--
12:57 PM648960.69-0.87nw4.34--
11:57 AM6310063-0.87ene3.48--
10:57 AM649261.63---4.34--
9:57 AM639260.64-1.74ese11.3--
8:57 AM619659.85-3.48e11.3--
7:57 AM6010060-2.61e10.43--
6:57 AM5810058-3.48ene8.69--
5:57 AM5810058-4.34e10.43--
2:57 AM5810058-5.21ene10.43--
1:57 AM5710057-0.87ene6.08--
12:57 AM589857.44-0.87e11.3--
High: 69ºf @10:57 AM    Low: 56ºf @6:57 AM     Approx. Precipitation / Rain Total: in.
Time (PST)Temp. (ºf)Humidity (%)Dew Point (ºf)Barometer (inHG)Wind Speed (mph)Wind DirectionWind Gust (mph)1hr. Precip / Rain Total (in.)Snow Depth
11:57 PM627152.48-4.34e14.77--
10:57 PM617553.02-3.48e14.77--
9:57 PM608354.82-6.08ene15.64--
8:57 PM5910059-3.48nw6.08--
7:57 PM609357.97-4.34se7.82--
6:57 PM599758.15-0.87nw4.34--
4:57 PM618054.78-2.61ne6.08--
3:57 PM618054.78-2.61e8.69--
1:57 PM665247.86-1.74s4.34--
12:57 PM694446.17-3.48w6.08--
11:57 AM694446.17-3.48se8.69--
10:57 AM694345.56-4.34se11.3--
9:57 AM684646.44-2.61e9.56--
7:57 AM595844.24-4.34ene13.03--
6:57 AM566945.97-3.48ene9.56--
5:57 AM576344.53-4.34ene9.56--
4:57 AM595944.69-4.34ene11.3--
3:57 AM576846.54-4.34ene10.43--
1:57 AM576645.75-6.95ne10.43--
High: 68ºf @12:57 PM    Low: 52ºf @4:57 AM     Approx. Precipitation / Rain Total: in.
Time (PST)Temp. (ºf)Humidity (%)Dew Point (ºf)Barometer (inHG)Wind Speed (mph)Wind DirectionWind Gust (mph)1hr. Precip / Rain Total (in.)Snow Depth
11:57 PM596547.25-5.21ene7.82--
10:57 PM586847.5-3.48ne7.82--
9:57 PM597049.23-3.48ene12.17--
8:57 PM597350.36-6.08ne12.17--
7:57 PM597551.08-5.21ne12.17--
6:57 PM597651.44-4.34ne9.56--
5:57 PM607451.69-4.34ne7.82--
4:57 PM606849.41-0.87nnw1.74--
3:57 PM655950.32-1.74wsw4.34--
2:57 PM675449.8-1.74w5.21--
1:57 PM685450.72-3.48sw6.08--
12:57 PM685651.71-1.74s6.08--
11:57 AM676052.65-2.61sse6.08--
10:57 AM666353.04-1.74ese6.08--
9:57 AM627553.98-2.61ese6.95--
8:57 AM588051.86-2.61e6.08--
7:57 AM548348.95-4.34ene12.17--
6:57 AM538849.54-5.21ne12.17--
5:57 AM539651.89-5.21ne11.3--
4:57 AM5210052-1.74ene6.95--
1:57 AM5410054-1.74ese3.48--
12:57 AM5510055-0.87e5.21--
High: 60ºf @2:57 AM    Low: 54ºf @6:57 AM     Approx. Precipitation / Rain Total: in.
Time (PST)Temp. (ºf)Humidity (%)Dew Point (ºf)Barometer (inHG)Wind Speed (mph)Wind DirectionWind Gust (mph)1hr. Precip / Rain Total (in.)Snow Depth
11:57 PM5410054-1.74ne3.48--
10:57 PM5410054-0.87ne4.34--
9:57 PM5510055---2.61--
8:57 PM5510055-1.74sw3.48--
7:57 PM5710057-1.74ssw5.21--
6:57 PM5710057-3.48sw7.82--
4:57 PM5710057-1.74n3.48--
3:57 PM5810058---5.21--
2:57 PM5810058-0.87ene2.61--
1:57 PM5910059-1.74e8.69--
12:57 PM5710057-2.61ene5.21--
10:57 AM5410054-4.34ne10.43--
9:57 AM5510055-5.21e12.17--
8:57 AM5510055-8.69e16.51--
7:57 AM5410054-4.34ese11.3--
6:57 AM5410054-4.34e9.56--
4:57 AM569654.87-2.61e6.95--
2:57 AM607050.18-4.34sse11.3--
1:57 AM588051.86-4.34ne9.56--
12:57 AM578452.21-1.74e5.21--
High: 68ºf @1:57 PM    Low: 51ºf @12:57 AM     Approx. Precipitation / Rain Total: in.
Time (PST)Temp. (ºf)Humidity (%)Dew Point (ºf)Barometer (inHG)Wind Speed (mph)Wind DirectionWind Gust (mph)1hr. Precip / Rain Total (in.)Snow Depth
10:57 PM587550.12-0.87se4.34--
9:57 PM597350.36---3.48--
8:57 PM607050.18-1.74nw4.34--
7:57 PM616749.96---4.34--
6:57 PM616749.96-4.34w6.08--
5:57 PM645647.98-1.74ene7.82--
3:57 PM645346.52-2.61w5.21--
2:57 PM665348.37-3.48wsw5.21--
1:57 PM684344.66-1.74sw4.34--
12:57 PM674544.95-1.74sse4.34--
11:57 AM655447.94-0.87e3.48--
10:57 AM626047.95-0.87se4.34--
9:57 AM625847.05-1.74sw3.48--
8:57 AM586646.7---3.48--
7:57 AM566644.8-1.74nne3.48--
6:57 AM546542.5---2.61--
5:57 AM546642.9-1.74ne6.95--
4:57 AM527644.67-1.74e4.34--
2:57 AM537545.29-0.87e5.21--
1:57 AM537143.85---4.34--
12:57 AM518346.02-0.87ene3.48--
High: 72ºf @1:57 PM    Low: 47ºf @4:57 AM     Approx. Precipitation / Rain Total: in.
Time (PST)Temp. (ºf)Humidity (%)Dew Point (ºf)Barometer (inHG)Wind Speed (mph)Wind DirectionWind Gust (mph)1hr. Precip / Rain Total (in.)Snow Depth
11:57 PM528447.32-1.74se3.48--
10:57 PM527945.69-0.87s1.74--
9:57 PM537946.66-0.87e2.61--
8:57 PM557246.14-0.87ese2.61--
7:57 PM556744.25-1.74n3.48--
6:57 PM586144.63-2.61sw3.48--
5:57 PM585843.31---3.48--
4:57 PM634440.74-2.61sw4.34--
3:57 PM693439.45-3.48wsw6.95--
1:57 PM723139.7-3.48nw6.95--
12:57 PM713138.83-0.87s5.21--
11:57 AM683337.82-2.61se6.08--
10:57 AM673538.44-3.48sse7.82--
9:57 AM653738.09-3.48ese11.3--
8:57 AM614137.13-2.61e5.21--
7:57 AM555338.19-0.87e3.48--
6:57 AM515836.75-2.61se12.17--
5:57 AM515535.41-6.08nne8.69--
4:57 AM477539.49-0.87se2.61--
3:57 AM506036.67---3.48--
2:57 AM525435.88-0.87ene9.56--
1:57 AM545136.28-5.21ne11.3--
12:57 AM525938.12---6.95--
High: 63ºf @2:57 PM    Low: 51ºf @2:57 AM     Approx. Precipitation / Rain Total: in.
Time (PST)Temp. (ºf)Humidity (%)Dew Point (ºf)Barometer (inHG)Wind Speed (mph)Wind DirectionWind Gust (mph)1hr. Precip / Rain Total (in.)Snow Depth
11:57 PM535436.8---7.82--
10:57 PM526138.97-1.74nne7.82--
9:57 PM565138.13-5.21ne9.56--
8:57 PM565439.59-4.34ne11.3--
7:57 PM575440.52-5.21ne8.69--
6:57 PM566042.31-3.48ne7.82--
5:57 PM546241.28---3.48--
2:57 PM633434.19-2.61ese6.95--
1:57 PM633434.19-2.61ese6.08--
12:57 PM623836.1-1.74ese5.21--
11:57 AM614338.34-1.74sse5.21--
10:57 AM584938.95-3.48se7.82--
9:57 AM565339.11-3.48ese7.82--
8:57 AM565238.62-2.61ese6.95--
7:57 AM545638.66-4.34ene9.56--
6:57 AM516640.05-3.48ene7.82--
5:57 AM516840.81-3.48ene9.56--
3:57 AM526440.2-3.48ene6.95--
2:57 AM516439.26-2.61ene12.17--
1:57 AM526641-6.95ne13.03--
12:57 AM536340.75-5.21ene13.9--
High: 58ºf @12:57 PM    Low: 44ºf @6:57 AM     Approx. Precipitation / Rain Total: in.
Time (PST)Temp. (ºf)Humidity (%)Dew Point (ºf)Barometer (inHG)Wind Speed (mph)Wind DirectionWind Gust (mph)1hr. Precip / Rain Total (in.)Snow Depth
11:57 PM536340.75-6.08ne12.17--
10:57 PM536340.75-6.95ne14.77--
9:57 PM536340.75-6.95ne14.77--
7:57 PM526641-7.82ne13.9--
6:57 PM526741.39-6.95ene16.51--
5:57 PM536943.1-5.21ene11.3--
4:57 PM536541.55-2.61ne8.69--
3:57 PM575340.04---2.61--
2:57 PM584134.43-0.87sse5.21--
1:57 PM584235.04-1.74se6.95--
12:57 PM584235.04-3.48ese10.43--
11:57 AM575038.55-5.21e12.17--
10:57 AM555740.05-5.21e10.43--
6:57 AM446934.49-7.82ne14.77--
5:57 AM447135.21-7.82ne15.64--
4:57 AM447235.56-6.95ne18.25--
3:57 AM447235.56-6.95ne13.9--
2:57 AM457437.22-6.95ne12.17--
1:57 AM457938.89-3.48ne10.43--
12:57 AM467538.53-6.08ene13.03--
High: 56ºf @12:57 PM    Low: 40ºf @5:57 AM     Approx. Precipitation / Rain Total: in.
Time (PST)Temp. (ºf)Humidity (%)Dew Point (ºf)Barometer (inHG)Wind Speed (mph)Wind DirectionWind Gust (mph)1hr. Precip / Rain Total (in.)Snow Depth
11:57 PM457738.23-4.34ne11.3--
10:57 PM467638.87-4.34ne9.56--
9:57 PM477840.5-4.34ene10.43--
8:57 PM478141.48-2.61nne5.21--
7:57 PM478141.48-0.87ese3.48--
6:57 PM477338.8-1.74wnw6.08--
5:57 PM487139.05-2.61wnw7.82--
4:57 PM516539.65-4.34wsw12.17--
3:57 PM545739.11-6.95sw13.9--
2:57 PM545035.78-1.74w6.08--
1:57 PM545236.78-4.34sw12.17--
12:57 PM564836.59-6.95wsw13.03--
11:57 AM555840.5-4.34wsw8.69--
9:57 AM507642.74-2.61sse5.21--
8:57 AM459142.53-1.74ene3.48--
7:57 AM448439.48-0.87e8.69--
5:57 AM409638.95-3.48ne7.82--
3:57 AM4010040---7.82--
1:57 AM4110041-3.48n6.08--
12:57 AM4310043-1.74e6.95--
High: 48ºf @6:57 AM    Low: 43ºf @11:57 PM     Approx. Precipitation / Rain Total: in.
Time (PST)Temp. (ºf)Humidity (%)Dew Point (ºf)Barometer (inHG)Wind Speed (mph)Wind DirectionWind Gust (mph)1hr. Precip / Rain Total (in.)Snow Depth
11:57 PM4310043-2.61e10.43--
10:57 PM459042.25-6.08e26.94--
9:57 PM458440.46-4.34s12.17--
8:57 PM468040.18-5.21e11.3--
7:57 PM458841.66-5.21ene13.9--
6:57 PM458540.77-3.48e13.03--
5:57 PM457738.23-5.21e18.25--
4:57 PM458039.21-7.82ene19.12--
3:57 PM448539.79-7.82e19.12--
2:57 PM459242.82-7.82ene15.64--
1:57 PM449041.26-8.69ene17.38--
12:57 PM469845.47-8.69ene16.51--
11:57 AM478342.11-5.21e16.51--
10:57 AM478943.93-6.08ene17.38--
9:57 AM489646.91-6.08ene13.03--
8:57 AM4710047-3.48ne9.56--
7:57 AM489747.19-4.34wsw21.72--
6:57 AM489245.79-4.34ne13.9--
5:57 AM479746.19-5.21e13.03--
4:57 AM487841.47-5.21e13.03--
3:57 AM487841.47-5.21ene14.77--
2:57 AM478943.93-5.21ene10.43--
1:57 AM478442.42-4.34ene9.56--
12:57 AM469644.92-3.48ene9.56--
High: 53ºf @3:57 AM    Low: 46ºf @11:57 PM     Approx. Precipitation / Rain Total: in.
Time (PST)Temp. (ºf)Humidity (%)Dew Point (ºf)Barometer (inHG)Wind Speed (mph)Wind DirectionWind Gust (mph)1hr. Precip / Rain Total (in.)Snow Depth
11:57 PM469143.52-2.61se8.69--
10:57 PM478542.73-6.08se15.64--
9:57 PM478943.93-3.48ene10.43--
8:57 PM479244.8-3.48ene9.56--
7:57 PM479445.36-3.48n6.95--
6:57 PM499547.63-1.74e6.08--
5:57 PM499647.91-0.87e5.21--
4:57 PM499447.35-1.74e6.95--
3:57 PM519248.76-3.48ene6.95--
2:57 PM4910049-1.74ese4.34--
1:57 PM508746.28---4.34--
12:57 PM509448.34-2.61ssw6.95--
11:57 AM5010050-5.21sw12.17--
10:57 AM5110051-4.34ssw7.82--
9:57 AM519850.45-2.61ne12.17--
8:57 AM519850.45-3.48ne7.82--
7:57 AM527945.69-2.61ene12.17--
6:57 AM527042.52-2.61ne8.69--
5:57 AM535436.8-1.74ene6.95--
4:57 AM534733.32-2.61ne6.95--
3:57 AM534431.68-2.61ene6.95--
2:57 AM534129.94-2.61ene7.82--
1:57 AM533928.71-3.48ene9.56--
12:57 AM524028.44-4.34ne9.56--
High: 67ºf @1:57 PM    Low: 47ºf @4:57 AM     Approx. Precipitation / Rain Total: in.
Time (PST)Temp. (ºf)Humidity (%)Dew Point (ºf)Barometer (inHG)Wind Speed (mph)Wind DirectionWind Gust (mph)1hr. Precip / Rain Total (in.)Snow Depth
10:57 PM533828.08-3.48ne8.69--
9:57 PM553729.21-3.48ne7.82--
8:57 PM543828.97-2.61ne6.08--
7:57 PM553729.21-0.87n5.21--
6:57 PM563830.76-0.87nnw5.21--
5:57 PM583429.79-4.34w6.95--
4:57 PM592725.07-2.61w4.34--
3:57 PM632324.62-2.61wnw4.34--
2:57 PM661719.95---6.95--
1:57 PM671619.34-2.61wsw8.69--
12:57 PM661719.95-4.34nw9.56--
11:57 AM662226.07-5.21w9.56--
10:57 AM652427.33-2.61wsw9.56--
9:57 AM632829.38-2.61se6.08--
8:57 AM603230.06-2.61ese7.82--
7:57 AM553829.86-0.87e8.69--
5:57 AM475933.42-1.74ene5.21--
4:57 AM476033.84-1.74nne6.08--
3:57 AM486235.61-1.74e4.34--
2:57 AM505735.37-0.87ene6.08--
1:57 AM525938.12-1.74ene6.95--
High: 71ºf @11:57 AM    Low: 52ºf @12:57 AM     Approx. Precipitation / Rain Total: in.
Time (PST)Temp. (ºf)Humidity (%)Dew Point (ºf)Barometer (inHG)Wind Speed (mph)Wind DirectionWind Gust (mph)1hr. Precip / Rain Total (in.)Snow Depth
11:57 PM537344.58---9.56--
10:57 PM537344.58-2.61nne7.82--
8:57 PM568952.8---9.56--
7:57 PM578753.17-3.48w6.08--
6:57 PM598454.17-1.74ese6.08--
5:57 PM607351.32-4.34sw6.08--
4:57 PM617051.14-3.48sw9.56--
2:57 PM695250.63-6.08sw10.43--
1:57 PM704748.83-6.08sw11.3--
12:57 PM713743.4-4.34wsw8.69--
11:57 AM713642.69-2.61s6.08--
9:57 AM653637.39-1.74ssw5.21--
8:57 AM623534.03-0.87ese9.56--
7:57 AM573730.99-4.34ne12.17--
6:57 AM534230.53-3.48ne8.69--
4:57 AM553930.5-6.95ene13.03--
3:57 AM544030.23-4.34ene9.56--
2:57 AM544432.58-3.48ne9.56--
1:57 AM554534.05-2.61e10.43--
12:57 AM525536.34-2.61ne5.21--
High: 78ºf @1:57 PM    Low: 54ºf @11:57 PM     Approx. Precipitation / Rain Total: in.
Time (PST)Temp. (ºf)Humidity (%)Dew Point (ºf)Barometer (inHG)Wind Speed (mph)Wind DirectionWind Gust (mph)1hr. Precip / Rain Total (in.)Snow Depth
11:57 PM545437.73-0.87ene3.48--
10:57 PM545538.2-0.87ene3.48--
9:57 PM574636.43-2.61ene11.3--
8:57 PM613935.86-5.21ne11.3--
7:57 PM614036.5-2.61ene11.3--
6:57 PM623936.76-2.61ne6.95--
5:57 PM613331.69-1.74w6.08--
4:57 PM672630.98-5.21w9.56--
3:57 PM751727.23-4.34wsw7.82--
2:57 PM771830.24-3.48w7.82--
1:57 PM781729.65-2.61wsw8.69--
12:57 PM781729.65-3.48wsw6.95--
11:57 AM762032.02-3.48s6.95--
10:57 AM752031.2-1.74ese6.08--
9:57 AM702431.54-3.48e10.43--
8:57 AM652629.28-4.34ne13.9--
7:57 AM593027.61-6.95ene14.77--
6:57 AM563428.03-6.95ne15.64--
5:57 AM573328.19-6.95ne13.9--
4:57 AM573529.62-6.08ne17.38--
3:57 AM563629.43-6.08ne13.9--
2:57 AM583530.51-5.21ne14.77--
1:57 AM583631.2-6.95ne15.64--
12:57 AM583731.88-6.95ne13.9--
High: 75ºf @1:57 PM    Low: 54ºf @6:57 AM     Approx. Precipitation / Rain Total: in.
Time (PST)Temp. (ºf)Humidity (%)Dew Point (ºf)Barometer (inHG)Wind Speed (mph)Wind DirectionWind Gust (mph)1hr. Precip / Rain Total (in.)Snow Depth
11:57 PM593833.43-6.95ne14.77--
10:57 PM593934.08-6.95ne14.77--
9:57 PM603834.32-6.95ne14.77--
8:57 PM623836.1-6.95ne13.03--
7:57 PM633736.32-3.48ne14.77--
6:57 PM643737.2-5.21ne12.17--
5:57 PM653838.77-4.34ne8.69--
4:57 PM683237.03-2.61wnw5.21--
3:57 PM732535.09-3.48w7.82--
2:57 PM752334.68-3.48w9.56--
1:57 PM752435.75-4.34w8.69--
12:57 PM742434.91-4.34wsw7.82--
11:57 AM732737.03-3.48ssw7.82--
10:57 AM723240.52-2.61sw5.21--
9:57 AM693540.2-1.74sse4.34--
8:57 AM644139.82-2.61ene8.69--
7:57 AM584737.88-4.34ne13.9--
6:57 AM545437.73-6.95ne14.77--
5:57 AM545839.56-6.08ne13.9--
4:57 AM555840.5-6.08ne13.03--
3:57 AM555940.94-5.21ne11.3--
2:57 AM565941.88-4.34ne10.43--
1:57 AM565841.43-6.08ne13.9--
12:57 AM565941.88-5.21ne10.43--
High: 73ºf @1:57 PM    Low: 52ºf @5:57 AM     Approx. Precipitation / Rain Total: in.
Time (PST)Temp. (ºf)Humidity (%)Dew Point (ºf)Barometer (inHG)Wind Speed (mph)Wind DirectionWind Gust (mph)1hr. Precip / Rain Total (in.)Snow Depth
11:57 PM575741.92-5.21ne9.56--
10:57 PM585441.45-6.08nne8.69--
9:57 PM595442.38-5.21ne9.56--
8:57 PM596145.57-2.61ene6.08--
7:57 PM596145.57-0.87se7.82--
6:57 PM625244.17-4.34ene7.82--
5:57 PM605744.72-2.61-7.82--
4:57 PM644642.8-3.48w4.34--
3:57 PM703742.52-2.61w6.95--
2:57 PM723341.31-1.74ene7.82--
1:57 PM733241.39-2.61sse7.82--
12:57 PM713441.21-5.21sse9.56--
11:57 AM703843.21-2.61ese9.56--
9:57 AM665348.37-1.74se6.08--
8:57 AM635546.57-2.61e10.43--
7:57 AM576143.68-2.61ne10.43--
6:57 AM536943.1-5.21ne10.43--
5:57 AM527243.26-6.08ene13.9--
4:57 AM537043.48-6.08ne13.03--
3:57 AM537244.22-5.21ene13.03--
2:57 AM547345.54-4.34ene11.3--
12:57 AM557446.87-5.21ene11.3--
High: 68ºf @2:57 PM    Low: 52ºf @6:57 AM     Approx. Precipitation / Rain Total: in.
Time (PST)Temp. (ºf)Humidity (%)Dew Point (ºf)Barometer (inHG)Wind Speed (mph)Wind DirectionWind Gust (mph)1hr. Precip / Rain Total (in.)Snow Depth
11:57 PM567548.19-5.21ne9.56--
10:57 PM567949.58-4.34ne6.95--
9:57 PM558550.57-3.48ne6.95--
8:57 PM568551.55-1.74nne4.34--
7:57 PM587951.52-0.87s5.21--
6:57 PM597450.72-2.61s5.21--
5:57 PM607050.18-2.61sw6.95--
4:57 PM616348.31-2.61sw6.08--
3:57 PM655246.94-2.61sw8.69--
2:57 PM684646.44-3.48s6.95--
1:57 PM655045.9-3.48wnw7.82--
12:57 PM654945.37-3.48s9.56--
11:57 AM664845.74-3.48ssw8.69--
9:57 AM635948.44-3.48ese7.82--
8:57 AM606146.51-3.48ne8.69--
7:57 AM547144.81-5.21ne11.3--
6:57 AM527644.67-4.34ene11.3--
5:57 AM527544.32-4.34ne10.43--
4:57 AM527443.97-5.21ne10.43--
3:57 AM527443.97-0.87nne6.08--
12:57 AM527443.97-3.48e8.69--
High: 52ºf @7:57 PM    Low: 51ºf @6:57 PM     Approx. Precipitation / Rain Total: in.
Time (PST)Temp. (ºf)Humidity (%)Dew Point (ºf)Barometer (inHG)Wind Speed (mph)Wind DirectionWind Gust (mph)1hr. Precip / Rain Total (in.)Snow Depth
10:57 PM527443.97-5.21ene12.17--
9:57 PM527644.67-3.48ene10.43--
8:57 PM527443.97-5.21ene12.17--
7:57 PM527544.32-5.21ne9.56--
6:57 PM517744.05-5.21ne8.69--
5:57 PM517643.7-4.34ene11.3--
Past Weather Disclaimer Note regarding "Approx. Precipitation / Rain Total"

Currently

Mostly Cloudy 57°F
29.91in
Barometer
88%
Humidity
South 4.6mph
Wind
Mostly Cloudy

Past Weather Nearby

More Local Information

Bookmark and Share

Go Ad Free - Become a Member